• In Uzbekistan
  • List of Countries
  • For 7 days
  • Water Temperature
  • Satellite Maps
  • Weather Map
  • Weather Widgets
  • user-avatar
    Login

    Hourly Weather Benguela

    Today, 26 July, Wednesday

    Time Temperature Precipitation Wind Pressure Humidity
    00:00 +22°C° 0 mm 1 mps 762 mmHg 90%
    01:00 +22°C° 0 mm 1 mps 762 mmHg 91%
    02:00 +21°C° 0 mm 1 mps 762 mmHg 91%
    03:00 +21°C° 0 mm 1 mps 761 mmHg 91%
    04:00 +21°C° 0 mm 1 mps 761 mmHg 92%
    05:00 +21°C° 0 mm 1 mps 761 mmHg 91%
    06:00 +22°C° 0 mm 1 mps 761 mmHg 90%
    07:00 +20°C° 0 mm 0 mps 762 mmHg 85%
    08:00 +25°C° 0 mm 1 mps 762 mmHg 74%
    09:00 +27°C° 0 mm 1 mps 762 mmHg 64%
    10:00 +30°C° 0 mm 1 mps 762 mmHg 54%
    11:00 +31°C° 0 mm 2 mps 761 mmHg 51%
    12:00 +33°C° 0 mm 3 mps 761 mmHg 48%
    13:00 +34°C° 0 mm 3 mps 760 mmHg 45%
    14:00 +33°C° 0 mm 3 mps 760 mmHg 48%
    15:00 +31°C° 0 mm 3 mps 759 mmHg 51%
    16:00 +30°C° 0 mm 3 mps 759 mmHg 54%
    17:00 +28°C° 0 mm 3 mps 759 mmHg 63%
    18:00 +26°C° 0 mm 3 mps 760 mmHg 72%
    19:00 +24°C° 0 mm 3 mps 760 mmHg 82%
    20:00 +24°C° 0 mm 3 mps 760 mmHg 83%
    21:00 +24°C° 0 mm 2 mps 761 mmHg 85%
    22:00 +23°C° 0 mm 2 mps 761 mmHg 86%
    23:00 +23°C° 0 mm 2 mps 761 mmHg 85%

    Tomorrow, 27 July, Thursday

    Time Temperature Precipitation Wind Pressure Humidity
    00:00 +23°C° 0 mm 2 mps 761 mmHg 84%
    01:00 +23°C° 0 mm 2 mps 761 mmHg 83%
    02:00 +23°C° 0 mm 2 mps 761 mmHg 82%
    03:00 +23°C° 0 mm 2 mps 761 mmHg 81%
    04:00 +23°C° 0 mm 2 mps 760 mmHg 80%
    05:00 +23°C° 0 mm 2 mps 760 mmHg 78%
    06:00 +23°C° 0 mm 2 mps 760 mmHg 76%
    07:00 +23°C° 0 mm 2 mps 761 mmHg 74%
    08:00 +27°C° 0 mm 2 mps 761 mmHg 62%
    09:00 +30°C° 0 mm 2 mps 761 mmHg 50%
    10:00 +34°C° 0 mm 2 mps 761 mmHg 39%
    11:00 +35°C° 0 mm 2 mps 760 mmHg 37%
    12:00 +36°C° 0 mm 3 mps 760 mmHg 35%
    13:00 +37°C° 0 mm 4 mps 759 mmHg 34%
    14:00 +35°C° 0 mm 3 mps 759 mmHg 39%
    15:00 +34°C° 0 mm 3 mps 758 mmHg 45%
    16:00 +31°C° 0 mm 3 mps 758 mmHg 51%
    17:00 +29°C° 0 mm 3 mps 759 mmHg 60%
    18:00 +27°C° 0 mm 2 mps 759 mmHg 69%
    19:00 +25°C° 0 mm 2 mps 760 mmHg 78%
    20:00 +25°C° 0 mm 2 mps 760 mmHg 81%
    21:00 +24°C° 0 mm 2 mps 761 mmHg 83%
    22:00 +24°C° 0 mm 1 mps 761 mmHg 86%
    23:00 +24°C° 0 mm 1 mps 761 mmHg 86%

    Day after tomorrow, 28 July, Friday

    Time Temperature Precipitation Wind Pressure Humidity
    00:00 +24°C° 0 mm 1 mps 761 mmHg 85%
    01:00 +23°C° 0 mm 1 mps 761 mmHg 85%
    02:00 +23°C° 0 mm 2 mps 760 mmHg 84%
    03:00 +23°C° 0 mm 2 mps 760 mmHg 83%
    04:00 +22°C° 0 mm 3 mps 759 mmHg 82%
    05:00 +24°C° 0 mm 2 mps 760 mmHg 78%
    06:00 +24°C° 0 mm 2 mps 760 mmHg 75%
    07:00 +24°C° 0 mm 2 mps 760 mmHg 72%
    08:00 +28°C° 0 mm 2 mps 760 mmHg 57%
    09:00 +31°C° 0 mm 2 mps 760 mmHg 43%
    10:00 +36°C° 0 mm 2 mps 761 mmHg 29%
    11:00 +36°C° 0 mm 3 mps 760 mmHg 29%
    12:00 +37°C° 0 mm 3 mps 759 mmHg 29%
    13:00 +38°C° 0 mm 4 mps 758 mmHg 29%
    14:00 +36°C° 0 mm 4 mps 758 mmHg 34%
    15:00 +35°C° 0 mm 4 mps 758 mmHg 39%
    16:00 +34°C° 0 mm 3 mps 757 mmHg 44%
    17:00 +31°C° 0 mm 3 mps 758 mmHg 52%
    18:00 +28°C° 0 mm 3 mps 758 mmHg 61%
    19:00 +26°C° 0 mm 2 mps 759 mmHg 70%
    20:00 +26°C° 0 mm 2 mps 760 mmHg 72%
    21:00 +25°C° 0 mm 2 mps 760 mmHg 74%
    22:00 +25°C° 0 mm 1 mps 761 mmHg 75%
    23:00 +25°C° 0 mm 1 mps 761 mmHg 75%

    29 July, Saturday

    Time Temperature Precipitation Wind Pressure Humidity
    00:00 +25°C° 0 mm 1 mps 760 mmHg 75%
    01:00 +24°C° 0 mm 1 mps 760 mmHg 75%
    02:00 +24°C° 0 mm 1 mps 760 mmHg 74%
    03:00 +24°C° 0 mm 1 mps 759 mmHg 72%
    04:00 +24°C° 0 mm 1 mps 759 mmHg 70%
    05:00 +24°C° 0 mm 1 mps 760 mmHg 67%
    06:00 +24°C° 0 mm 2 mps 760 mmHg 63%
    07:00 +24°C° 0 mm 2 mps 760 mmHg 60%
    08:00 +27°C° 0 mm 2 mps 761 mmHg 51%
    09:00 +30°C° 0 mm 3 mps 761 mmHg 41%
    10:00 +34°C° 0 mm 3 mps 761 mmHg 31%
    11:00 +35°C° 0 mm 3 mps 760 mmHg 32%
    12:00 +36°C° 0 mm 4 mps 760 mmHg 33%
    13:00 +37°C° 0 mm 4 mps 759 mmHg 34%
    14:00 +35°C° 0 mm 4 mps 759 mmHg 40%
    15:00 +34°C° 0 mm 3 mps 758 mmHg 46%
    16:00 +31°C° 0 mm 3 mps 758 mmHg 52%
    17:00 +29°C° 0 mm 2 mps 759 mmHg 62%
    18:00 +27°C° 0 mm 2 mps 759 mmHg 72%
    19:00 +25°C° 0 mm 1 mps 760 mmHg 82%
    20:00 +25°C° 0 mm 1 mps 760 mmHg 84%
    21:00 +24°C° 0 mm 1 mps 761 mmHg 86%
    22:00 +24°C° 0 mm 1 mps 761 mmHg 88%
    23:00 +24°C° 0 mm 1 mps 761 mmHg 87%

    30 July, Sunday

    Time Temperature Precipitation Wind Pressure Humidity
    00:00 +24°C° 0 mm 1 mps 761 mmHg 86%
    01:00 +24°C° 0 mm 1 mps 760 mmHg 85%
    02:00 +24°C° 0 mm 1 mps 760 mmHg 83%
    03:00 +23°C° 0 mm 1 mps 760 mmHg 82%
    04:00 +23°C° 0 mm 1 mps 759 mmHg 80%
    05:00 +23°C° 0 mm 2 mps 760 mmHg 76%
    06:00 +23°C° 0 mm 2 mps 760 mmHg 71%
    07:00 +24°C° 0 mm 2 mps 761 mmHg 67%
    08:00 +27°C° 0 mm 2 mps 761 mmHg 54%
    09:00 +30°C° 0 mm 3 mps 761 mmHg 41%
    10:00 +35°C° 0 mm 3 mps 761 mmHg 28%
    11:00 +36°C° 0 mm 3 mps 760 mmHg 29%
    12:00 +36°C° 0 mm 4 mps 759 mmHg 31%
    13:00 +37°C° 0 mm 4 mps 758 mmHg 32%
    14:00 +36°C° 0 mm 4 mps 758 mmHg 38%
    15:00 +34°C° 0 mm 3 mps 758 mmHg 45%
    16:00 +33°C° 0 mm 3 mps 757 mmHg 51%
    17:00 +30°C° 0 mm 2 mps 758 mmHg 62%
    18:00 +27°C° 0 mm 2 mps 759 mmHg 73%
    19:00 +25°C° 0 mm 1 mps 759 mmHg 83%
    20:00 +25°C° 0 mm 1 mps 760 mmHg 86%
    21:00 +24°C° 0 mm 1 mps 760 mmHg 88%
    22:00 +24°C° 0 mm 1 mps 761 mmHg 91%
    23:00 +23°C° 0 mm 1 mps 760 mmHg 90%

    31 July, Monday

    Time Temperature Precipitation Wind Pressure Humidity
    00:00 +23°C° 0 mm 1 mps 760 mmHg 89%
    01:00 +23°C° 0 mm 1 mps 760 mmHg 89%
    02:00 +23°C° 0 mm 1 mps 760 mmHg 90%
    03:00 +20°C° 0 mm 0 mps 760 mmHg 91%
    04:00 +20°C° 0 mm 0 mps 760 mmHg 93%
    05:00 +22°C° 0 mm 1 mps 760 mmHg 92%
    06:00 +22°C° 0 mm 1 mps 761 mmHg 91%
    07:00 +22°C° 0 mm 1 mps 761 mmHg 90%
    08:00 +25°C° 0 mm 1 mps 761 mmHg 76%
    09:00 +28°C° 0 mm 2 mps 761 mmHg 63%
    10:00 +31°C° 0 mm 2 mps 761 mmHg 49%
    11:00 +33°C° 0 mm 3 mps 760 mmHg 46%
    12:00 +34°C° 0 mm 3 mps 759 mmHg 43%
    13:00 +35°C° 0 mm 4 mps 759 mmHg 41%
    14:00 +34°C° 0 mm 3 mps 758 mmHg 46%
    15:00 +33°C° 0 mm 3 mps 758 mmHg 51%
    16:00 +31°C° 0 mm 3 mps 758 mmHg 56%
    17:00 +29°C° 0 mm 3 mps 759 mmHg 65%
    18:00 +27°C° 0 mm 2 mps 759 mmHg 74%
    19:00 +25°C° 0 mm 2 mps 760 mmHg 83%
    20:00 +24°C° 0 mm 1 mps 760 mmHg 86%
    21:00 +24°C° 0 mm 1 mps 761 mmHg 88%
    22:00 +21°C° 0 mm 0 mps 761 mmHg 90%
    23:00 +21°C° 0 mm 0 mps 761 mmHg 91%
    Show more